Showing default

LDPE-1, 49818

Orbit data source: Space-Track

LDPE-1, 49818 is a payload satellite owned by AFRL/RV (US) in GEO that was launched on Tue, 07 Dec 2021 UTC via an ATLAS V 551 launch vehicle from the Air Force Eastern Test Range (AFETR). Payload-class satellites include a variety of spacecraft equipped with specific instruments for various scientific and technological missions. These include communications satellites like Starlink; space stations such as the ISS; scientific satellites like the Hubble; Earth observation satellites from companies like Planet Labs, Umbra, and HawkEye 360; GPS; miniature CubeSats for education and research; and military/defense satellites.

Loading next visibility...
Identifier
49818, 2021-118B
Orbit
GEO
Last TLE update
11 hours ago
Origin
Manufacturer
NGIS
Mission
Operational Defense Technology
Bus & Motor
ESPASTAR, Unknown motor
Mass
~500 kg wet, 500 kg dry
Launch date (UTC)
2021-12-07 (4 years ago)
Launch vehicle
ATLAS V 551
Launch site
Air Force Eastern Test Range (AFETR)
Object type
Payload
Rocket body
Debris
Shape & HBR
Cyl + 1 Pan, 3.6 m
Radar Cross Section
3.054 m², Large (>1 m²)

Expand to show TLE details & history

TLE from 11 hours ago
0 LDPE-1
1 49818U 21118B   25190.13794872 -.00000265  00000-0  00000+0 0  9994
2 49818   2.8454  83.1343 0007052   7.5449 174.0278  1.00650838 13183
Epoch: 2025-07-09T03:18Z
TLE epoch observation values (Epoch: 2025-07-09T03:18:38.769Z)
Latitude
-0.10002°
Longitude
-72.26546°
Altitude
35,709.804 km
Speed
3.076 km/s
True Right ascension
17h 38m 52s
True Declination
0° 05' 60"
Sunlit
Object was in daylight at epoch
Visualization orbit readout
Latitude
-0.32451°
Longitude
99.24126°
Altitude
35,651.407 km
Speed
3.081 km/s
Apparent Right ascension
05h 21m 11s
Apparent Declination
-6° 27' 44"
Sunlit
Object is in daylight
Visualization observer readout
Local Sidereal Time
02:50:59
Azimuth
134.339° SE
Elevation
32.14°
Doppler factor
1
Orbital elements
Apogee altitude
35,711.396 km
Perigee altitude
35,652.075 km
Semi-major axis
42,059.872 km
Eccentricity
0.00071
Inclination
2.8454°
RAAN
83.1343°
Arg. of periapsis
7.5449°
True anomaly
Unknown
Mean anomaly
174.0278°
Eccentric anomaly
Unknown
Mean motion
0.25162 °/min
Orbital period
1,430.74 mins
BSTAR
0
Loading historical data...
49818 neighbors
Loading maneuver chart data...
Loading SW <> Apogee altitude chart data...
Loading historical data...
Loading historical data...
Loading historical data...
Loading historical data...
Loading historical data...
Loading historical data...
Loading historical data...
Other satellites on launch #118 in the year 2021 (2021-12-07 UTC)

LDPE-1 Visibility forecast

Observer location: undefined°, undefined°

Span
Click to sort rows by Start time (UTC) header in descending order
Start Az.
Max El. time (UTC)
Max El. Az.
Max El.
End time (UTC)
End Az.
1440 mins2025-07-09 14:40:18.222Z134.353° SE2025-07-09 20:50:18.222Z131.514° SE29.677°2025-07-10 14:40:18.222Z132.806° SE
|